Orbital Elements
Epoch 2012 June 2.0 TT = JDT 2456080.5
T 2012 May 31.10234 TT MPC
q 2.8578789 (2000.0) P Q
n 0.06228820 Peri. 331.02429 +0.57116854 -0.59086505
a 6.3027808 Node 77.67629 +0.81946658 +0.37043039
e 0.5465686 Incl. 35.67699 +0.04733944 +0.71670065
P 15.8
From 259 observations 2011 July 1-2014 Mar. 21, mean residual 0".5.
|